Location: Unspecified
(52.4292°N, 19.3359°E)
Time: 23:01:36
(UTC+02:00)

Altair - Pass Details

Date: 28 May 2024
Orbit: 1502 x 1682 km, 47.2° (Epoch: 19 June)

Event Time Altitude Azimuth Distance (km) Brightness Sun altitude
Rises 15:55:59 0° 287° (WNW) 4,916 10.7 41.6°
Reaches altitude 10° 15:59:44 10° 276° (W) 3,938 10.6 41.1°
Maximum altitude 16:07:41 27° 224° (SW) 2,805 10.3 39.9°
Drops below altitude 10° 16:15:37 10° 171° (S) 3,922 9.8 38.7°
Sets 16:19:22 0° 161° (SSE) 4,892 10.1 38.2°
